Radiosonde details



Informationen :

Serial : D26003263
Type : Graw DFM
Frequency : 403.010MHz
Launchsite : Tampa Bay Area
Nearest town : Redington Shores, US (9.6km)

Altitude (Max) : 35010m at 2026-09-05 00:48:16
Speed (Max) : 119km/h at altitude 32897m

Average speed : 37km/h
Average ascent rate : 6m/s
Average descent rate : -16m/s
Ascent rate (Max) : 12.4m/s
Descent rate (Max): -56.1m/s

First frame :
ARGUS2 at 2026-09-04 23:12:18 at altitude 3693m (OG: 3636m)
Last frame :
ARGUS2 at 2026-09-05 01:22:47 at altitude 3356m (OG: 3314m)

Flighttime : 2h10m29s
Ascent time : 1h35m58s
Descent time : 34m31s
Uptime : -
Killtimer : -

Distance (Straight line distance): 54km

Distance (Route):


Frames : 353


Measurement :

Temperature : 9.8°C
Humidity : 0%
Pressure : 0hPa


Vertical profile (SkewT) :


Elevation profile :



Receiving stations :


Receiver Frames First received Last received
ARGUS2 353 2026-09-04 23:12:18 2026-09-05 01:22:47

Share per receiver :



All frames :


Receiver Date Latitude Longitude Direction Speed Altitude Climb Temperature Humidity Pressure Voltage Killtimer Uptime BKT XDATA
ARGUS22026-09-05 01:22:4727.80819-82.9246761°11km/h3356m-12.8m/s9.8°C0%0hPa0V00:00:0000:00:0000:00:00
ARGUS22026-09-05 01:22:2727.80792-82.9253360°13km/h3631m-13.5m/s8.5°C0%0hPa0V00:00:0000:00:0000:00:00
ARGUS22026-09-05 01:21:4427.80724-82.9267465°13km/h4182m-12.0m/s4.7°C0%0hPa0V00:00:0000:00:0000:00:00
ARGUS22026-09-05 01:21:2427.80686-82.9275254°16km/h4431m-11.0m/s3.2°C0%0hPa0V00:00:0000:00:0000:00:00
ARGUS22026-09-05 01:21:0327.80638-82.9280535°13km/h4659m-10.8m/s1.7°C0%0hPa0V00:00:0000:00:0000:00:00
ARGUS22026-09-05 01:20:4227.80577-82.9286438°16km/h4890m-10.8m/s0.3°C0%0hPa0V00:00:0000:00:0000:00:00
ARGUS22026-09-05 01:20:2227.80496-82.9289928°15km/h5131m-11.7m/s-0.7°C0%0hPa0V00:00:0000:00:0000:00:00
ARGUS22026-09-05 01:20:0027.80415-82.9297744°24km/h5394m-11.9m/s-2.6°C0%0hPa0V00:00:0000:00:0000:00:00
ARGUS22026-09-05 01:19:3927.80327-82.9304734°16km/h5642m-12.3m/s-3.4°C0%0hPa0V00:00:0000:00:0000:00:00
ARGUS22026-09-05 01:19:1827.80253-82.9309515°18km/h5913m-13.2m/s-5.7°C0%0hPa0V00:00:0000:00:0000:00:00
ARGUS22026-09-05 01:18:5827.80169-82.9312018°16km/h6176m-11.7m/s-7.6°C0%0hPa0V00:00:0000:00:0000:00:00
ARGUS22026-09-05 01:18:3727.80094-82.93127360°16km/h6383m-9.9m/s-8.6°C0%0hPa0V00:00:0000:00:0000:00:00
ARGUS22026-09-05 01:18:1727.80010-82.9314722°18km/h6593m-10.4m/s-10.4°C0%0hPa0V00:00:0000:00:0000:00:00
ARGUS22026-09-05 01:17:5627.79939-82.9319131°18km/h6853m-15.2m/s-12.0°C0%0hPa0V00:00:0000:00:0000:00:00
ARGUS22026-09-05 01:17:3627.79836-82.9325935°24km/h7178m-16.1m/s-13.7°C0%0hPa0V00:00:0000:00:0000:00:00
ARGUS22026-09-05 01:17:1427.79757-82.9336559°26km/h7521m-16.2m/s-15.3°C0%0hPa0V00:00:0000:00:0000:00:00
ARGUS22026-09-05 01:16:5427.79683-82.9347545°18km/h7856m-16.9m/s-17.4°C0%0hPa0V00:00:0000:00:0000:00:00
ARGUS22026-09-05 01:16:3327.79603-82.9354334°16km/h8214m-17.1m/s-19.2°C0%0hPa0V00:00:0000:00:0000:00:00
ARGUS22026-09-05 01:16:1327.79534-82.9357011°15km/h8554m-16.7m/s-22.1°C0%0hPa0V00:00:0000:00:0000:00:00
ARGUS22026-09-05 01:15:5327.79441-82.9360519°16km/h8908m-16.7m/s-24.3°C0%0hPa0V00:00:0000:00:0000:00:00
ARGUS22026-09-05 01:15:3227.79371-82.93607359°13km/h9244m-17.3m/s-26.4°C0%0hPa0V00:00:0000:00:0000:00:00
ARGUS22026-09-05 01:15:1127.79268-82.9362713°26km/h9595m-16.6m/s-28.2°C0%0hPa0V00:00:0000:00:0000:00:00
ARGUS22026-09-05 01:14:5127.79117-82.9367620°35km/h9930m-16.4m/s-30.9°C0%0hPa0V00:00:0000:00:0000:00:00
ARGUS22026-09-05 01:14:3127.78926-82.9374219°40km/h10278m-16.4m/s-34.0°C0%0hPa0V00:00:0000:00:0000:00:00
ARGUS22026-09-05 01:14:1027.78734-82.9383429°42km/h10606m-16.5m/s-36.9°C0%0hPa0V00:00:0000:00:0000:00:00
ARGUS22026-09-05 01:13:5027.78540-82.9396626°42km/h10949m-15.9m/s-39.6°C0%0hPa0V00:00:0000:00:0000:00:00
ARGUS22026-09-05 01:13:3027.78371-82.93981339°33km/h11270m-16.3m/s-41.3°C0%0hPa0V00:00:0000:00:0000:00:00
ARGUS22026-09-05 01:13:0927.78217-82.93852315°40km/h11614m-17.0m/s-43.5°C0%0hPa0V00:00:0000:00:0000:00:00
ARGUS22026-09-05 01:12:4827.78069-82.93653309°47km/h11946m-16.5m/s-45.9°C0%0hPa0V00:00:0000:00:0000:00:00
ARGUS22026-09-05 01:12:2827.77930-82.93427300°46km/h12300m-17.0m/s-48.7°C0%0hPa0V00:00:0000:00:0000:00:00
ARGUS22026-09-05 01:12:0727.77818-82.93196298°47km/h12640m-16.9m/s-51.6°C0%0hPa0V00:00:0000:00:0000:00:00
ARGUS22026-09-05 01:11:4727.77706-82.92963305°40km/h12990m-16.9m/s-54.2°C0%0hPa0V00:00:0000:00:0000:00:00
ARGUS22026-09-05 01:11:2527.77594-82.92774306°35km/h13343m-17.0m/s-57.2°C0%0hPa0V00:00:0000:00:0000:00:00
ARGUS22026-09-05 01:10:4927.77322-82.92516325°37km/h13720m-6.6m/s-60.0°C0%0hPa0V00:00:0000:00:0000:00:00
ARGUS22026-09-05 01:10:2827.77181-82.92399329°31km/h13857m-6.5m/s-61.2°C0%0hPa0V00:00:0000:00:0000:00:00
ARGUS22026-09-05 01:10:0827.77026-82.92292325°35km/h14001m-6.8m/s-61.9°C0%0hPa0V00:00:0000:00:0000:00:00
ARGUS22026-09-05 01:09:4727.76885-82.92183329°31km/h14136m-6.8m/s-63.1°C0%0hPa0V00:00:0000:00:0000:00:00
ARGUS22026-09-05 01:09:2727.76741-82.92087330°31km/h14278m-6.6m/s-64.3°C0%0hPa0V00:00:0000:00:0000:00:00
ARGUS22026-09-05 01:09:0527.76601-82.91996329°31km/h14431m-6.8m/s-65.6°C0%0hPa0V00:00:0000:00:0000:00:00
ARGUS22026-09-05 01:08:4527.76453-82.91909338°35km/h14567m-6.6m/s-66.5°C0%0hPa0V00:00:0000:00:0000:00:00
ARGUS22026-09-05 01:08:2427.76310-82.91846332°22km/h14711m-6.2m/s-66.8°C0%0hPa0V00:00:0000:00:0000:00:00
ARGUS22026-09-05 01:08:0427.76212-82.91785335°22km/h14847m-6.6m/s-67.2°C0%0hPa0V00:00:0000:00:0000:00:00
ARGUS22026-09-05 01:07:4427.76118-82.91729328°20km/h14988m-6.6m/s-67.3°C0%0hPa0V00:00:0000:00:0000:00:00
ARGUS22026-09-05 01:07:2327.76084-82.91664276°13km/h15129m-6.9m/s-67.3°C0%0hPa0V00:00:0000:00:0000:00:00
ARGUS22026-09-05 01:05:1827.76096-82.90752281°40km/h16066m-7.7m/s-70.6°C0%0hPa0V00:00:0000:00:0000:00:00
ARGUS22026-09-05 01:04:5827.76076-82.90524278°37km/h16223m-6.9m/s-70.8°C0%0hPa0V00:00:0000:00:0000:00:00
ARGUS22026-09-05 01:04:3627.76034-82.90335290°27km/h16382m-7.3m/s-70.9°C0%0hPa0V00:00:0000:00:0000:00:00
ARGUS22026-09-05 01:04:1527.75971-82.90195310°26km/h16548m-7.5m/s-71.3°C0%0hPa0V00:00:0000:00:0000:00:00
ARGUS22026-09-05 01:03:5227.75906-82.90060301°20km/h16729m-8.2m/s-71.7°C0%0hPa0V00:00:0000:00:0000:00:00
ARGUS22026-09-05 01:03:3127.75858-82.89937287°27km/h16902m-8.0m/s-71.2°C0%0hPa0V00:00:0000:00:0000:00:00
ARGUS22026-09-05 01:03:1027.75870-82.89815247°24km/h17089m-8.7m/s-69.9°C0%0hPa0V00:00:0000:00:0000:00:00
ARGUS22026-09-05 01:02:4827.75909-82.89648260°35km/h17274m-8.3m/s-70.1°C0%0hPa0V00:00:0000:00:0000:00:00
ARGUS22026-09-05 01:02:2827.75896-82.89468294°33km/h17457m-9.6m/s-69.3°C0%0hPa0V00:00:0000:00:0000:00:00
ARGUS22026-09-05 01:02:0827.75843-82.89354249°15km/h17674m-9.6m/s-67.6°C0%0hPa0V00:00:0000:00:0000:00:00
ARGUS22026-09-05 01:01:4727.75937-82.89246221°44km/h17875m-10.1m/s-67.4°C0%0hPa0V00:00:0000:00:0000:00:00
ARGUS22026-09-05 01:01:2727.76143-82.89026231°49km/h18079m-9.7m/s-67.1°C0%0hPa0V00:00:0000:00:0000:00:00
ARGUS22026-09-05 01:01:0627.76276-82.88860227°33km/h18289m-10.0m/s-67.6°C0%0hPa0V00:00:0000:00:0000:00:00
ARGUS22026-09-05 01:00:4627.76354-82.88745223°26km/h18514m-10.2m/s-68.0°C0%0hPa0V00:00:0000:00:0000:00:00
ARGUS22026-09-05 01:00:2627.76411-82.88683208°7km/h18726m-10.4m/s-68.9°C0%0hPa0V00:00:0000:00:0000:00:00
ARGUS22026-09-05 01:00:0427.76445-82.88645223°18km/h18949m-10.0m/s-68.3°C0%0hPa0V00:00:0000:00:0000:00:00
ARGUS22026-09-05 00:59:4327.76489-82.88484276°38km/h19176m-10.3m/s-65.0°C0%0hPa0V00:00:0000:00:0000:00:00
ARGUS22026-09-05 00:59:2227.76494-82.88296252°26km/h19411m-11.6m/s-65.0°C0%0hPa0V00:00:0000:00:0000:00:00
ARGUS22026-09-05 00:58:3627.76447-82.87988265°22km/h19979m-12.7m/s-61.7°C0%0hPa0V00:00:0000:00:0000:00:00
ARGUS22026-09-05 00:58:1627.76497-82.87833231°24km/h20248m-13.9m/s-59.8°C0%0hPa0V00:00:0000:00:0000:00:00
ARGUS22026-09-05 00:57:5527.76585-82.87717237°35km/h20541m-14.4m/s-60.2°C0%0hPa0V00:00:0000:00:0000:00:00
ARGUS22026-09-05 00:57:3527.76638-82.87502271°40km/h20829m-13.9m/s-61.0°C0%0hPa0V00:00:0000:00:0000:00:00
ARGUS22026-09-05 00:57:1527.76633-82.87277286°49km/h21137m-14.3m/s-60.6°C0%0hPa0V00:00:0000:00:0000:00:00
ARGUS22026-09-05 00:56:5427.76599-82.87045282°42km/h21446m-15.2m/s-58.8°C0%0hPa0V00:00:0000:00:0000:00:00
ARGUS22026-09-05 00:56:3327.76586-82.86803266°38km/h21787m-16.8m/s-59.9°C0%0hPa0V00:00:0000:00:0000:00:00
ARGUS22026-09-05 00:56:1327.76643-82.86568259°42km/h22135m-16.5m/s-60.2°C0%0hPa0V00:00:0000:00:0000:00:00
ARGUS22026-09-05 00:55:5327.76645-82.86323278°42km/h22472m-17.2m/s-59.9°C0%0hPa0V00:00:0000:00:0000:00:00
ARGUS22026-09-05 00:55:3227.76621-82.86053278°55km/h22811m-16.5m/s-58.3°C0%0hPa0V00:00:0000:00:0000:00:00
ARGUS22026-09-05 00:55:1227.76616-82.85752258°46km/h23167m-17.5m/s-54.4°C0%0hPa0V00:00:0000:00:0000:00:00
ARGUS22026-09-05 00:54:5127.76668-82.85480249°60km/h23524m-17.5m/s-53.1°C0%0hPa0V00:00:0000:00:0000:00:00
ARGUS22026-09-05 00:54:3127.76740-82.85174256°58km/h23909m-18.3m/s-53.2°C0%0hPa0V00:00:0000:00:0000:00:00
ARGUS22026-09-05 00:54:1027.76759-82.84801277°66km/h24307m-20.2m/s-52.2°C0%0hPa0V00:00:0000:00:0000:00:00
ARGUS22026-09-05 00:53:4827.76611-82.84438304°49km/h24789m-21.0m/s-50.0°C0%0hPa0V00:00:0000:00:0000:00:00
ARGUS22026-09-05 00:53:0727.76567-82.84014285°51km/h25675m-22.0m/s-48.5°C0%0hPa0V00:00:0000:00:0000:00:00
ARGUS22026-09-05 00:52:4627.76497-82.83649281°64km/h26136m-23.7m/s-46.4°C0%0hPa0V00:00:0000:00:0000:00:00
ARGUS22026-09-05 00:52:2627.76435-82.83448300°20km/h26649m-23.7m/s-46.4°C0%0hPa0V00:00:0000:00:0000:00:00
ARGUS22026-09-05 00:52:0427.76391-82.83268269°37km/h27188m-26.3m/s-48.0°C0%0hPa0V00:00:0000:00:0000:00:00
ARGUS22026-09-05 00:51:4427.76452-82.83047247°40km/h27728m-27.2m/s-46.3°C0%0hPa0V00:00:0000:00:0000:00:00
ARGUS22026-09-05 00:51:2327.76624-82.82784236°73km/h28324m-29.0m/s-45.8°C0%0hPa0V00:00:0000:00:0000:00:00
ARGUS22026-09-05 00:51:0327.76760-82.82484254°37km/h28907m-29.6m/s-45.7°C0%0hPa0V00:00:0000:00:0000:00:00
ARGUS22026-09-05 00:50:4327.76832-82.82302239°31km/h29546m-30.8m/s-45.5°C0%0hPa0V00:00:0000:00:0000:00:00
ARGUS22026-09-05 00:50:2227.76897-82.82123264°55km/h30182m-33.0m/s-47.3°C0%0hPa0V00:00:0000:00:0000:00:00
ARGUS22026-09-05 00:50:0227.76878-82.81759275°58km/h30901m-35.9m/s-46.1°C0%0hPa0V00:00:0000:00:0000:00:00
ARGUS22026-09-05 00:49:3927.76890-82.81474242°42km/h31723m-38.8m/s-40.7°C0%0hPa0V00:00:0000:00:0000:00:00
ARGUS22026-09-05 00:49:1827.77111-82.81188236°64km/h32551m-39.7m/s-43.5°C0%0hPa0V00:00:0000:00:0000:00:00
ARGUS22026-09-05 00:48:5927.77197-82.80840263°60km/h33545m-56.1m/s-39.7°C0%0hPa0V00:00:0000:00:0000:00:00
ARGUS22026-09-05 00:48:3827.77298-82.80465246°69km/h34702m-52.1m/s-36.0°C0%0hPa0V00:00:0000:00:0000:00:00
ARGUS22026-09-05 00:48:1627.77417-82.80039271°49km/h35010m6.6m/s-36.6°C0%0hPa0V00:00:0000:00:0000:00:00
ARGUS22026-09-05 00:47:5627.77592-82.79673212°40km/h34875m4.3m/s-36.7°C0%0hPa0V00:00:0000:00:0000:00:00
ARGUS22026-09-05 00:47:3327.77771-82.79314257°93km/h34749m7.6m/s-36.6°C0%0hPa0V00:00:0000:00:0000:00:00
ARGUS22026-09-05 00:47:1227.77939-82.78980201°69km/h34615m3.1m/s-37.3°C0%0hPa0V00:00:0000:00:0000:00:00
ARGUS22026-09-05 00:46:5127.78040-82.78708297°57km/h34485m6.9m/s-37.3°C0%0hPa0V00:00:0000:00:0000:00:00
ARGUS22026-09-05 00:46:3127.78147-82.78349244°106km/h34368m6.5m/s-37.7°C0%0hPa0V00:00:0000:00:0000:00:00
ARGUS22026-09-05 00:46:1027.78275-82.78043183°44km/h34254m4.6m/s-38.0°C0%0hPa0V00:00:0000:00:0000:00:00
ARGUS22026-09-05 00:45:4927.78330-82.77751287°86km/h34155m7.8m/s-38.7°C0%0hPa0V00:00:0000:00:0000:00:00
ARGUS22026-09-05 00:45:2927.78399-82.77367257°104km/h34062m-1.3m/s-39.4°C0%0hPa0V00:00:0000:00:0000:00:00
ARGUS22026-09-05 00:45:0827.78508-82.76979214°40km/h33969m7.2m/s-40.0°C0%0hPa0V00:00:0000:00:0000:00:00
ARGUS22026-09-05 00:44:4727.78565-82.76651274°93km/h33862m6.4m/s-39.8°C0%0hPa0V00:00:0000:00:0000:00:00
ARGUS22026-09-05 00:44:2627.78706-82.76307201°69km/h33740m3.2m/s-39.9°C0%0hPa0V00:00:0000:00:0000:00:00
ARGUS22026-09-05 00:44:0527.78823-82.76048298°53km/h33606m12.1m/s-40.2°C0%0hPa0V00:00:0000:00:0000:00:00
ARGUS22026-09-05 00:43:2227.78955-82.75479306°38km/h33313m7.2m/s-40.3°C0%0hPa0V00:00:0000:00:0000:00:00
ARGUS22026-09-05 00:43:0227.79051-82.75126251°111km/h33167m3.0m/s-40.8°C0%0hPa0V00:00:0000:00:0000:00:00
ARGUS22026-09-05 00:42:4027.79168-82.74732218°29km/h33030m6.0m/s-42.3°C0%0hPa0V00:00:0000:00:0000:00:00
ARGUS22026-09-05 00:42:1927.79215-82.74316262°117km/h32897m0.1m/s-43.1°C0%0hPa0V00:00:0000:00:0000:00:00
ARGUS22026-09-05 00:41:5827.79317-82.73920213°77km/h32758m8.4m/s-43.6°C0%0hPa0V00:00:0000:00:0000:00:00
ARGUS22026-09-05 00:41:3727.79452-82.73627198°46km/h32643m3.5m/s-43.7°C0%0hPa0V00:00:0000:00:0000:00:00
ARGUS22026-09-05 00:41:1727.79638-82.73357234°73km/h32518m10.6m/s-43.1°C0%0hPa0V00:00:0000:00:0000:00:00
ARGUS22026-09-05 00:40:5727.79849-82.73049234°82km/h32376m4.1m/s-42.0°C0%0hPa0V00:00:0000:00:0000:00:00
ARGUS22026-09-05 00:40:3627.80064-82.72787200°46km/h32246m7.3m/s-41.0°C0%0hPa0V00:00:0000:00:0000:00:00
ARGUS22026-09-05 00:40:1627.80264-82.72506232°68km/h32133m7.5m/s-41.5°C0%0hPa0V00:00:0000:00:0000:00:00
ARGUS22026-09-05 00:39:5527.80403-82.72236259°86km/h32027m6.1m/s-42.0°C0%0hPa0V00:00:0000:00:0000:00:00
ARGUS22026-09-05 00:39:3527.80480-82.71982261°26km/h31926m8.0m/s-42.7°C0%0hPa0V00:00:0000:00:0000:00:00
ARGUS22026-09-05 00:39:1427.80490-82.71758207°35km/h31832m5.6m/s-44.6°C0%0hPa0V00:00:0000:00:0000:00:00
ARGUS22026-09-05 00:38:5427.80470-82.71478290°80km/h31723m9.2m/s-45.0°C0%0hPa0V00:00:0000:00:0000:00:00
ARGUS22026-09-05 00:38:3227.80392-82.71186293°29km/h31590m9.8m/s-47.0°C0%0hPa0V00:00:0000:00:0000:00:00
ARGUS22026-09-05 00:38:1127.80396-82.70885279°68km/h31428m8.6m/s-47.3°C0%0hPa0V00:00:0000:00:0000:00:00
ARGUS22026-09-05 00:37:5027.80445-82.70595239°38km/h31272m10.9m/s-47.1°C0%0hPa0V00:00:0000:00:0000:00:00
ARGUS22026-09-05 00:37:2827.80498-82.70290263°78km/h31108m11.6m/s-47.9°C0%0hPa0V00:00:0000:00:0000:00:00
ARGUS22026-09-05 00:37:0727.80512-82.69953274°68km/h30960m5.8m/s-47.6°C0%0hPa0V00:00:0000:00:0000:00:00
ARGUS22026-09-05 00:36:2327.80619-82.69227252°71km/h30656m9.0m/s-47.3°C0%0hPa0V00:00:0000:00:0000:00:00
ARGUS22026-09-05 00:36:0227.80667-82.68808260°95km/h30512m8.6m/s-47.0°C0%0hPa0V00:00:0000:00:0000:00:00
ARGUS22026-09-05 00:35:4027.80725-82.68375264°53km/h30375m7.5m/s-47.3°C0%0hPa0V00:00:0000:00:0000:00:00
ARGUS22026-09-05 00:35:2027.80833-82.68016251°78km/h30239m2.7m/s-47.0°C0%0hPa0V00:00:0000:00:0000:00:00
ARGUS22026-09-05 00:34:5927.80960-82.67731210°29km/h30097m7.5m/s-46.7°C0%0hPa0V00:00:0000:00:0000:00:00
ARGUS22026-09-05 00:34:3827.81076-82.67501247°66km/h29953m9.7m/s-45.8°C0%0hPa0V00:00:0000:00:0000:00:00
ARGUS22026-09-05 00:34:1827.81212-82.67313199°33km/h29798m6.5m/s-44.8°C0%0hPa0V00:00:0000:00:0000:00:00
ARGUS22026-09-05 00:33:5727.81349-82.67176246°35km/h29643m6.3m/s-44.1°C0%0hPa0V00:00:0000:00:0000:00:00
ARGUS22026-09-05 00:33:3527.81493-82.67123208°38km/h29485m12.4m/s-43.5°C0%0hPa0V00:00:0000:00:0000:00:00
ARGUS22026-09-05 00:33:1427.81631-82.67024206°24km/h29324m9.0m/s-42.8°C0%0hPa0V00:00:0000:00:0000:00:00
ARGUS22026-09-05 00:32:5327.81762-82.66897237°53km/h29171m6.8m/s-41.9°C0%0hPa0V00:00:0000:00:0000:00:00
ARGUS22026-09-05 00:32:1127.82008-82.66532253°53km/h28869m6.4m/s-41.0°C0%0hPa0V00:00:0000:00:0000:00:00
ARGUS22026-09-05 00:31:4927.82106-82.66350265°44km/h28712m6.2m/s-40.8°C0%0hPa0V00:00:0000:00:0000:00:00
ARGUS22026-09-05 00:31:2927.82123-82.66196288°38km/h28578m9.6m/s-41.6°C0%0hPa0V00:00:0000:00:0000:00:00
ARGUS22026-09-05 00:31:0927.82082-82.65964287°35km/h28451m7.7m/s-41.2°C0%0hPa0V00:00:0000:00:0000:00:00
ARGUS22026-09-05 00:30:4827.82060-82.65723265°64km/h28337m0.7m/s-40.7°C0%0hPa0V00:00:0000:00:0000:00:00
ARGUS22026-09-05 00:30:2627.82077-82.65374241°68km/h28208m2.3m/s-41.2°C0%0hPa0V00:00:0000:00:0000:00:00
ARGUS22026-09-05 00:30:0527.82121-82.65008294°71km/h28110m3.8m/s-42.7°C0%0hPa0V00:00:0000:00:0000:00:00
ARGUS22026-09-05 00:29:4427.82186-82.64577263°69km/h28008m6.3m/s-43.9°C0%0hPa0V00:00:0000:00:0000:00:00
ARGUS22026-09-05 00:29:2427.82232-82.64275264°68km/h27900m8.6m/s-45.6°C0%0hPa0V00:00:0000:00:0000:00:00
ARGUS22026-09-05 00:29:0427.82224-82.63987307°55km/h27777m2.8m/s-46.5°C0%0hPa0V00:00:0000:00:0000:00:00
ARGUS22026-09-05 00:28:4327.82247-82.63698266°68km/h27647m6.0m/s-47.2°C0%0hPa0V00:00:0000:00:0000:00:00
ARGUS22026-09-05 00:28:2327.82275-82.63393259°69km/h27497m10.4m/s-47.8°C0%0hPa0V00:00:0000:00:0000:00:00
ARGUS22026-09-05 00:28:0227.82286-82.63067274°51km/h27333m8.4m/s-47.5°C0%0hPa0V00:00:0000:00:0000:00:00
ARGUS22026-09-05 00:27:4227.82294-82.62748290°47km/h27159m9.4m/s-47.4°C0%0hPa0V00:00:0000:00:0000:00:00
ARGUS22026-09-05 00:27:2027.82270-82.62443306°44km/h26981m9.2m/s-46.8°C0%0hPa0V00:00:0000:00:0000:00:00
ARGUS22026-09-05 00:26:5927.82201-82.62155275°60km/h26810m5.6m/s-45.6°C0%0hPa0V00:00:0000:00:0000:00:00
ARGUS22026-09-05 00:26:3827.82106-82.61877281°49km/h26649m4.5m/s-44.9°C0%0hPa0V00:00:0000:00:0000:00:00
ARGUS22026-09-05 00:26:1827.81993-82.61646297°29km/h26507m6.9m/s-45.2°C0%0hPa0V00:00:0000:00:0000:00:00
ARGUS22026-09-05 00:25:5727.81877-82.61452306°27km/h26391m5.6m/s-46.5°C0%0hPa0V00:00:0000:00:0000:00:00
ARGUS22026-09-05 00:25:3727.81742-82.61171275°51km/h26284m7.4m/s-46.4°C0%0hPa0V00:00:0000:00:0000:00:00
ARGUS22026-09-05 00:25:1627.81649-82.60797291°46km/h26186m4.9m/s-46.6°C0%0hPa0V00:00:0000:00:0000:00:00
ARGUS22026-09-05 00:24:5627.81518-82.60349290°86km/h26086m6.6m/s-47.3°C0%0hPa0V00:00:0000:00:0000:00:00
ARGUS22026-09-05 00:24:3527.81373-82.59894286°93km/h25986m5.3m/s-48.2°C0%0hPa0V00:00:0000:00:0000:00:00
ARGUS22026-09-05 00:24:1527.81236-82.59456275°73km/h25883m3.9m/s-49.3°C0%0hPa0V00:00:0000:00:0000:00:00
ARGUS22026-09-05 00:23:5327.81133-82.59085266°58km/h25777m6.1m/s-50.3°C0%0hPa0V00:00:0000:00:0000:00:00
ARGUS22026-09-05 00:23:3327.81084-82.58749262°55km/h25669m6.2m/s-51.0°C0%0hPa0V00:00:0000:00:0000:00:00
ARGUS22026-09-05 00:23:1227.81090-82.58458279°53km/h25554m6.9m/s-52.2°C0%0hPa0V00:00:0000:00:0000:00:00
ARGUS22026-09-05 00:22:5227.81097-82.58209246°27km/h25438m6.9m/s-52.1°C0%0hPa0V00:00:0000:00:0000:00:00
ARGUS22026-09-05 00:22:3227.81107-82.57985286°37km/h25310m5.1m/s-52.2°C0%0hPa0V00:00:0000:00:0000:00:00
ARGUS22026-09-05 00:22:1127.81096-82.57763289°49km/h25187m5.2m/s-52.0°C0%0hPa0V00:00:0000:00:0000:00:00
ARGUS22026-09-05 00:21:5127.81056-82.57480294°46km/h25065m6.2m/s-52.5°C0%0hPa0V00:00:0000:00:0000:00:00
ARGUS22026-09-05 00:21:3027.80971-82.57156275°82km/h24955m4.6m/s-54.3°C0%0hPa0V00:00:0000:00:0000:00:00
ARGUS22026-09-05 00:21:1027.80866-82.56773265°68km/h24840m5.3m/s-55.2°C0%0hPa0V00:00:0000:00:0000:00:00
ARGUS22026-09-05 00:20:4927.80819-82.56407269°77km/h24725m5.6m/s-55.2°C0%0hPa0V00:00:0000:00:0000:00:00
ARGUS22026-09-05 00:20:2927.80849-82.55999258°80km/h24599m4.9m/s-55.9°C0%0hPa0V00:00:0000:00:0000:00:00
ARGUS22026-09-05 00:20:0827.80921-82.55625259°75km/h24478m4.9m/s-55.5°C0%0hPa0V00:00:0000:00:0000:00:00
ARGUS22026-09-05 00:19:4827.80954-82.55195273°55km/h24345m7.2m/s-55.1°C0%0hPa0V00:00:0000:00:0000:00:00
ARGUS22026-09-05 00:19:2727.80994-82.54806264°73km/h24221m6.7m/s-54.6°C0%0hPa0V00:00:0000:00:0000:00:00
ARGUS22026-09-05 00:19:0727.81058-82.54458243°60km/h24092m6.8m/s-54.7°C0%0hPa0V00:00:0000:00:0000:00:00
ARGUS22026-09-05 00:18:4627.81113-82.54180254°40km/h23966m6.9m/s-54.6°C0%0hPa0V00:00:0000:00:0000:00:00
ARGUS22026-09-05 00:18:2527.81152-82.53952259°58km/h23848m5.3m/s-54.3°C0%0hPa0V00:00:0000:00:0000:00:00
ARGUS22026-09-05 00:18:0527.81207-82.53672249°55km/h23727m6.2m/s-54.1°C0%0hPa0V00:00:0000:00:0000:00:00
ARGUS22026-09-05 00:17:4427.81290-82.53405237°60km/h23618m6.4m/s-54.2°C0%0hPa0V00:00:0000:00:0000:00:00
ARGUS22026-09-05 00:17:2327.81401-82.53127231°47km/h23509m3.6m/s-54.3°C0%0hPa0V00:00:0000:00:0000:00:00
ARGUS22026-09-05 00:17:0327.81449-82.52878259°44km/h23415m5.7m/s-54.8°C0%0hPa0V00:00:0000:00:0000:00:00
ARGUS22026-09-05 00:16:4327.81493-82.52621246°55km/h23318m3.0m/s-55.5°C0%0hPa0V00:00:0000:00:0000:00:00
ARGUS22026-09-05 00:16:2327.81557-82.52380248°57km/h23225m3.8m/s-56.8°C0%0hPa0V00:00:0000:00:0000:00:00
ARGUS22026-09-05 00:15:4127.81617-82.51694270°57km/h23005m7.1m/s-57.4°C0%0hPa0V00:00:0000:00:0000:00:00
ARGUS22026-09-05 00:15:2127.81643-82.51393252°33km/h22876m5.2m/s-58.1°C0%0hPa0V00:00:0000:00:0000:00:00
ARGUS22026-09-05 00:15:0027.81649-82.51099273°53km/h22744m6.4m/s-57.4°C0%0hPa0V00:00:0000:00:0000:00:00
ARGUS22026-09-05 00:14:4027.81643-82.50721274°60km/h22610m6.3m/s-57.5°C0%0hPa0V00:00:0000:00:0000:00:00
ARGUS22026-09-05 00:14:1927.81664-82.50402287°53km/h22487m4.8m/s-57.7°C0%0hPa0V00:00:0000:00:0000:00:00
ARGUS22026-09-05 00:13:5927.81680-82.50141267°46km/h22369m6.2m/s-58.9°C0%0hPa0V00:00:0000:00:0000:00:00
ARGUS22026-09-05 00:13:3827.81699-82.49868264°44km/h22261m4.0m/s-59.4°C0%0hPa0V00:00:0000:00:0000:00:00
ARGUS22026-09-05 00:13:1727.81737-82.49601251°49km/h22164m5.4m/s-59.1°C0%0hPa0V00:00:0000:00:0000:00:00
ARGUS22026-09-05 00:12:5627.81812-82.49306265°49km/h22065m5.1m/s-59.7°C0%0hPa0V00:00:0000:00:0000:00:00
ARGUS22026-09-05 00:12:3627.81875-82.49070255°42km/h21970m5.6m/s-60.3°C0%0hPa0V00:00:0000:00:0000:00:00
ARGUS22026-09-05 00:12:1627.81954-82.48827249°35km/h21868m5.2m/s-59.9°C0%0hPa0V00:00:0000:00:0000:00:00
ARGUS22026-09-05 00:11:5527.81999-82.48596256°46km/h21768m6.2m/s-59.7°C0%0hPa0V00:00:0000:00:0000:00:00
ARGUS22026-09-05 00:11:3527.82021-82.48328270°51km/h21660m6.0m/s-59.5°C0%0hPa0V00:00:0000:00:0000:00:00
ARGUS22026-09-05 00:11:1427.82033-82.48081260°47km/h21550m4.7m/s-59.7°C0%0hPa0V00:00:0000:00:0000:00:00
ARGUS22026-09-05 00:10:5427.82026-82.47842262°49km/h21436m5.6m/s-60.5°C0%0hPa0V00:00:0000:00:0000:00:00
ARGUS22026-09-05 00:10:3327.82000-82.47630272°44km/h21327m4.6m/s-62.4°C0%0hPa0V00:00:0000:00:0000:00:00
ARGUS22026-09-05 00:10:1327.81937-82.47418301°24km/h21223m3.9m/s-62.4°C0%0hPa0V00:00:0000:00:0000:00:00
ARGUS22026-09-05 00:09:5127.81889-82.47246320°27km/h21130m4.6m/s-62.7°C0%0hPa0V00:00:0000:00:0000:00:00
ARGUS22026-09-05 00:09:3027.81822-82.47069297°42km/h21041m4.8m/s-62.8°C0%0hPa0V00:00:0000:00:0000:00:00
ARGUS22026-09-05 00:08:4927.81786-82.46690271°26km/h20889m4.3m/s-63.0°C0%0hPa0V00:00:0000:00:0000:00:00
ARGUS22026-09-05 00:08:2727.81817-82.46577239°18km/h20805m3.5m/s-62.9°C0%0hPa0V00:00:0000:00:0000:00:00
ARGUS22026-09-05 00:07:4627.81862-82.46471129°11km/h20628m5.5m/s-62.8°C0%0hPa0V00:00:0000:00:0000:00:00
ARGUS22026-09-05 00:07:2627.81882-82.46423270°9km/h20542m3.6m/s-62.4°C0%0hPa0V00:00:0000:00:0000:00:00
ARGUS22026-09-05 00:07:0627.81911-82.46351260°24km/h20455m4.7m/s-62.4°C0%0hPa0V00:00:0000:00:0000:00:00
ARGUS22026-09-05 00:06:4527.81913-82.46226267°24km/h20368m4.7m/s-63.2°C0%0hPa0V00:00:0000:00:0000:00:00
ARGUS22026-09-05 00:06:2527.81917-82.46101270°11km/h20265m6.1m/s-64.7°C0%0hPa0V00:00:0000:00:0000:00:00
ARGUS22026-09-05 00:06:0427.81902-82.46066282°22km/h20165m4.9m/s-64.7°C0%0hPa0V00:00:0000:00:0000:00:00
ARGUS22026-09-05 00:05:4327.81881-82.45969261°27km/h20059m5.0m/s-65.1°C0%0hPa0V00:00:0000:00:0000:00:00
ARGUS22026-09-05 00:05:2327.81879-82.45814279°35km/h19952m6.2m/s-66.0°C0%0hPa0V00:00:0000:00:0000:00:00
ARGUS22026-09-05 00:05:0327.81919-82.45660229°29km/h19841m4.8m/s-66.5°C0%0hPa0V00:00:0000:00:0000:00:00
ARGUS22026-09-05 00:04:4227.81969-82.45561242°13km/h19738m4.7m/s-66.1°C0%0hPa0V00:00:0000:00:0000:00:00
ARGUS22026-09-05 00:04:0227.82128-82.45427197°16km/h19526m5.8m/s-65.7°C0%0hPa0V00:00:0000:00:0000:00:00
ARGUS22026-09-05 00:03:4127.82270-82.45338210°24km/h19422m4.0m/s-65.0°C0%0hPa0V00:00:0000:00:0000:00:00
ARGUS22026-09-05 00:03:2027.82400-82.45236228°33km/h19323m6.0m/s-64.4°C0%0hPa0V00:00:0000:00:0000:00:00
ARGUS22026-09-05 00:02:4227.82562-82.44965263°33km/h19141m4.2m/s-63.8°C0%0hPa0V00:00:0000:00:0000:00:00
ARGUS22026-09-05 00:02:2127.82621-82.44812249°29km/h19054m4.4m/s-63.8°C0%0hPa0V00:00:0000:00:0000:00:00
ARGUS22026-09-05 00:01:4027.82847-82.44461214°53km/h18843m6.2m/s-64.9°C0%0hPa0V00:00:0000:00:0000:00:00
ARGUS22026-09-05 00:01:1927.83048-82.44321217°53km/h18743m4.8m/s-64.3°C0%0hPa0V00:00:0000:00:0000:00:00
ARGUS22026-09-05 00:00:5627.83216-82.44187227°37km/h18642m5.9m/s-63.8°C0%0hPa0V00:00:0000:00:0000:00:00
ARGUS22026-09-05 00:00:3827.83360-82.44092202°37km/h18539m5.6m/s-63.8°C0%0hPa0V00:00:0000:00:0000:00:00
ARGUS22026-09-05 00:00:1927.83443-82.44037253°13km/h18436m5.2m/s-64.3°C0%0hPa0V00:00:0000:00:0000:00:00
ARGUS22026-09-04 23:59:5527.83453-82.44007323°9km/h18331m6.1m/s-64.6°C0%0hPa0V00:00:0000:00:0000:00:00
ARGUS22026-09-04 23:59:3427.83412-82.43944291°13km/h18232m5.5m/s-64.1°C0%0hPa0V00:00:0000:00:0000:00:00
ARGUS22026-09-04 23:59:1327.83393-82.43841284°24km/h18121m4.6m/s-63.7°C0%0hPa0V00:00:0000:00:0000:00:00
ARGUS22026-09-04 23:58:5327.83421-82.43721251°20km/h18018m4.7m/s-64.1°C0%0hPa0V00:00:0000:00:0000:00:00
ARGUS22026-09-04 23:58:3327.83454-82.43577249°29km/h17908m5.4m/s-64.4°C0%0hPa0V00:00:0000:00:0000:00:00
ARGUS22026-09-04 23:58:1127.83540-82.43428225°27km/h17802m5.3m/s-64.8°C0%0hPa0V00:00:0000:00:0000:00:00
ARGUS22026-09-04 23:57:5127.83688-82.43255243°35km/h17688m8.1m/s-64.6°C0%0hPa0V00:00:0000:00:0000:00:00
ARGUS22026-09-04 23:57:3127.83784-82.43098303°20km/h17541m7.9m/s-66.5°C0%0hPa0V00:00:0000:00:0000:00:00
ARGUS22026-09-04 23:57:1027.83709-82.42992304°37km/h17432m5.6m/s-67.0°C0%0hPa0V00:00:0000:00:0000:00:00
ARGUS22026-09-04 23:56:5027.83592-82.42843292°42km/h17335m3.9m/s-68.4°C0%0hPa0V00:00:0000:00:0000:00:00
ARGUS22026-09-04 23:56:2927.83509-82.42653275°31km/h17240m4.7m/s-68.9°C0%0hPa0V00:00:0000:00:0000:00:00
ARGUS22026-09-04 23:56:0827.83470-82.42452274°35km/h17139m4.9m/s-69.6°C0%0hPa0V00:00:0000:00:0000:00:00
ARGUS22026-09-04 23:55:4827.83453-82.42305294°27km/h17036m5.8m/s-69.5°C0%0hPa0V00:00:0000:00:0000:00:00
ARGUS22026-09-04 23:55:2827.83423-82.42206299°24km/h16932m5.3m/s-70.0°C0%0hPa0V00:00:0000:00:0000:00:00
ARGUS22026-09-04 23:55:0727.83364-82.42127296°16km/h16830m5.2m/s-71.1°C0%0hPa0V00:00:0000:00:0000:00:00
ARGUS22026-09-04 23:54:4727.83303-82.42022290°20km/h16716m7.2m/s-71.3°C0%0hPa0V00:00:0000:00:0000:00:00
ARGUS22026-09-04 23:54:2627.83238-82.41907298°24km/h16612m5.8m/s-71.3°C0%0hPa0V00:00:0000:00:0000:00:00
ARGUS22026-09-04 23:54:0627.83155-82.41800300°35km/h16505m4.6m/s-71.4°C0%0hPa0V00:00:0000:00:0000:00:00
ARGUS22026-09-04 23:53:4527.83098-82.41672286°38km/h16406m4.7m/s-71.4°C0%0hPa0V00:00:0000:00:0000:00:00
ARGUS22026-09-04 23:53:2527.83045-82.41499276°33km/h16305m5.3m/s-72.0°C0%0hPa0V00:00:0000:00:0000:00:00
ARGUS22026-09-04 23:53:0327.83012-82.41287287°38km/h16210m3.9m/s-71.8°C0%0hPa0V00:00:0000:00:0000:00:00
ARGUS22026-09-04 23:52:4327.82965-82.41057273°33km/h16126m2.9m/s-71.3°C0%0hPa0V00:00:0000:00:0000:00:00
ARGUS22026-09-04 23:52:2227.82893-82.40829291°37km/h16039m3.8m/s-71.1°C0%0hPa0V00:00:0000:00:0000:00:00
ARGUS22026-09-04 23:52:0227.82862-82.40625275°37km/h15954m3.5m/s-71.0°C0%0hPa0V00:00:0000:00:0000:00:00
ARGUS22026-09-04 23:51:4127.82873-82.40418256°33km/h15866m5.1m/s-70.5°C0%0hPa0V00:00:0000:00:0000:00:00
ARGUS22026-09-04 23:51:2227.82874-82.40223270°33km/h15783m3.9m/s-71.6°C0%0hPa0V00:00:0000:00:0000:00:00
ARGUS22026-09-04 23:51:0127.82877-82.39992263°38km/h15687m4.6m/s-71.4°C0%0hPa0V00:00:0000:00:0000:00:00
ARGUS22026-09-04 23:50:4027.82918-82.39790266°31km/h15593m4.9m/s-70.7°C0%0hPa0V00:00:0000:00:0000:00:00
ARGUS22026-09-04 23:50:2027.82953-82.39564231°37km/h15498m3.6m/s-70.2°C0%0hPa0V00:00:0000:00:0000:00:00
ARGUS22026-09-04 23:49:5927.82944-82.39418268°37km/h15383m5.1m/s-69.6°C0%0hPa0V00:00:0000:00:0000:00:00
ARGUS22026-09-04 23:49:3927.82871-82.39250305°24km/h15286m5.6m/s-69.2°C0%0hPa0V00:00:0000:00:0000:00:00
ARGUS22026-09-04 23:49:1827.82780-82.39123315°38km/h15160m7.8m/s-68.3°C0%0hPa0V00:00:0000:00:0000:00:00
ARGUS22026-09-04 23:48:5827.82635-82.38992327°42km/h15014m6.4m/s-68.1°C0%0hPa0V00:00:0000:00:0000:00:00
ARGUS22026-09-04 23:48:3727.82450-82.38893333°38km/h14909m5.2m/s-67.7°C0%0hPa0V00:00:0000:00:0000:00:00
ARGUS22026-09-04 23:48:1727.82259-82.38797343°37km/h14794m6.8m/s-67.0°C0%0hPa0V00:00:0000:00:0000:00:00
ARGUS22026-09-04 23:47:5527.82082-82.38686330°49km/h14674m5.0m/s-66.6°C0%0hPa0V00:00:0000:00:0000:00:00
ARGUS22026-09-04 23:47:3527.81919-82.38557306°46km/h14566m5.1m/s-66.6°C0%0hPa0V00:00:0000:00:0000:00:00
ARGUS22026-09-04 23:47:1427.81788-82.38364284°29km/h14429m5.8m/s-65.7°C0%0hPa0V00:00:0000:00:0000:00:00
ARGUS22026-09-04 23:46:5427.81687-82.38161315°27km/h14306m4.1m/s-64.8°C0%0hPa0V00:00:0000:00:0000:00:00
ARGUS22026-09-04 23:46:3427.81569-82.37977269°35km/h14188m7.3m/s-64.0°C0%0hPa0V00:00:0000:00:0000:00:00
ARGUS22026-09-04 23:46:1327.81469-82.37835305°33km/h14076m6.2m/s-63.2°C0%0hPa0V00:00:0000:00:0000:00:00
ARGUS22026-09-04 23:45:5327.81343-82.37686347°18km/h13967m3.3m/s-62.3°C0%0hPa0V00:00:0000:00:0000:00:00
ARGUS22026-09-04 23:45:3227.81240-82.37558303°20km/h13866m4.2m/s-61.6°C0%0hPa0V00:00:0000:00:0000:00:00
ARGUS22026-09-04 23:45:1227.81108-82.37405330°31km/h13763m5.6m/s-60.7°C0%0hPa0V00:00:0000:00:0000:00:00
ARGUS22026-09-04 23:44:5127.81002-82.37261320°38km/h13670m5.5m/s-59.9°C0%0hPa0V00:00:0000:00:0000:00:00
ARGUS22026-09-04 23:44:3127.80897-82.37124316°29km/h13582m5.6m/s-59.1°C0%0hPa0V00:00:0000:00:0000:00:00
ARGUS22026-09-04 23:44:1027.80799-82.36983303°20km/h13489m5.2m/s-58.4°C0%0hPa0V00:00:0000:00:0000:00:00
ARGUS22026-09-04 23:43:5027.80689-82.36822278°18km/h13389m8.1m/s-57.6°C0%0hPa0V00:00:0000:00:0000:00:00
ARGUS22026-09-04 23:43:3027.80602-82.36668274°38km/h13284m4.0m/s-56.8°C0%0hPa0V00:00:0000:00:0000:00:00
ARGUS22026-09-04 23:43:0927.80516-82.36471312°46km/h13177m5.1m/s-55.9°C0%0hPa0V00:00:0000:00:0000:00:00
ARGUS22026-09-04 23:42:4727.80419-82.36270293°35km/h13069m6.5m/s-55.5°C0%0hPa0V00:00:0000:00:0000:00:00
ARGUS22026-09-04 23:42:2727.80323-82.36088324°40km/h12957m7.1m/s-54.6°C0%0hPa0V00:00:0000:00:0000:00:00
ARGUS22026-09-04 23:42:0727.80217-82.35907261°33km/h12830m3.3m/s-53.4°C0%0hPa0V00:00:0000:00:0000:00:00
ARGUS22026-09-04 23:41:4627.80116-82.35734272°31km/h12693m9.1m/s-52.2°C0%0hPa0V00:00:0000:00:0000:00:00
ARGUS22026-09-04 23:41:2527.80069-82.35583315°11km/h12544m5.0m/s-51.1°C0%0hPa0V00:00:0000:00:0000:00:00
ARGUS22026-09-04 23:41:0527.79967-82.35418312°58km/h12407m6.5m/s-50.0°C0%0hPa0V00:00:0000:00:0000:00:00
ARGUS22026-09-04 23:40:4527.79857-82.35241248°24km/h12256m7.8m/s-48.9°C0%0hPa0V00:00:0000:00:0000:00:00
ARGUS22026-09-04 23:40:2427.79773-82.35096299°51km/h12113m6.1m/s-47.7°C0%0hPa0V00:00:0000:00:0000:00:00
ARGUS22026-09-04 23:40:0327.79725-82.34930233°15km/h11975m4.1m/s-46.5°C0%0hPa0V00:00:0000:00:0000:00:00
ARGUS22026-09-04 23:39:4327.79656-82.34772339°35km/h11829m7.1m/s-45.5°C0%0hPa0V00:00:0000:00:0000:00:00
ARGUS22026-09-04 23:39:2327.79569-82.34631307°38km/h11679m6.1m/s-44.4°C0%0hPa0V00:00:0000:00:0000:00:00
ARGUS22026-09-04 23:39:0227.79477-82.34516329°35km/h11564m6.2m/s-43.6°C0%0hPa0V00:00:0000:00:0000:00:00
ARGUS22026-09-04 23:38:2127.79253-82.34311304°11km/h11294m9.5m/s-41.4°C0%0hPa0V00:00:0000:00:0000:00:00
ARGUS22026-09-04 23:38:0127.79135-82.34234327°49km/h11132m6.7m/s-40.4°C0%0hPa0V00:00:0000:00:0000:00:00
ARGUS22026-09-04 23:37:3927.79003-82.3421633°31km/h10977m7.5m/s-39.3°C0%0hPa0V00:00:0000:00:0000:00:00
ARGUS22026-09-04 23:37:1927.78854-82.3428356°31km/h10859m6.1m/s-38.2°C0%0hPa0V00:00:0000:00:0000:00:00
ARGUS22026-09-04 23:36:5827.78713-82.3436124°18km/h10751m5.9m/s-37.3°C0%0hPa0V00:00:0000:00:0000:00:00
ARGUS22026-09-04 23:36:3827.78567-82.3443446°37km/h10650m4.9m/s-36.3°C0%0hPa0V00:00:0000:00:0000:00:00
ARGUS22026-09-04 23:36:1827.78411-82.3454149°40km/h10539m4.7m/s-35.3°C0%0hPa0V00:00:0000:00:0000:00:00
ARGUS22026-09-04 23:35:5827.78258-82.3464040°20km/h10441m4.6m/s-34.4°C0%0hPa0V00:00:0000:00:0000:00:00
ARGUS22026-09-04 23:35:3727.78129-82.3474038°33km/h10347m5.0m/s-33.8°C0%0hPa0V00:00:0000:00:0000:00:00
ARGUS22026-09-04 23:35:1627.78012-82.3484154°24km/h10274m4.0m/s-33.1°C0%0hPa0V00:00:0000:00:0000:00:00
ARGUS22026-09-04 23:34:5627.77901-82.3493055°18km/h10192m3.8m/s-32.5°C0%0hPa0V00:00:0000:00:0000:00:00
ARGUS22026-09-04 23:34:3527.77796-82.3500719°24km/h10114m4.3m/s-32.2°C0%0hPa0V00:00:0000:00:0000:00:00
ARGUS22026-09-04 23:34:1527.77675-82.3504918°20km/h10038m3.0m/s-31.9°C0%0hPa0V00:00:0000:00:0000:00:00
ARGUS22026-09-04 23:33:5427.77572-82.3510622°22km/h9961m3.9m/s-31.5°C0%0hPa0V00:00:0000:00:0000:00:00
ARGUS22026-09-04 23:33:3427.77492-82.3516860°13km/h9886m4.0m/s-30.9°C0%0hPa0V00:00:0000:00:0000:00:00
ARGUS22026-09-04 23:33:1327.77429-82.3521832°13km/h9810m3.5m/s-30.3°C0%0hPa0V00:00:0000:00:0000:00:00
ARGUS22026-09-04 23:32:5327.77356-82.35251353°18km/h9725m3.8m/s-29.7°C0%0hPa0V00:00:0000:00:0000:00:00
ARGUS22026-09-04 23:32:3227.77268-82.3526932°16km/h9641m5.6m/s-29.3°C0%0hPa0V00:00:0000:00:0000:00:00
ARGUS22026-09-04 23:32:1127.77172-82.3530318°29km/h9563m3.3m/s-28.7°C0%0hPa0V00:00:0000:00:0000:00:00
ARGUS22026-09-04 23:31:5027.77075-82.3533625°18km/h9477m4.3m/s-27.9°C0%0hPa0V00:00:0000:00:0000:00:00
ARGUS22026-09-04 23:31:3027.76972-82.3540116°26km/h9394m3.5m/s-27.1°C0%0hPa0V00:00:0000:00:0000:00:00
ARGUS22026-09-04 23:31:0927.76873-82.3546142°20km/h9308m5.1m/s-26.5°C0%0hPa0V00:00:0000:00:0000:00:00
ARGUS22026-09-04 23:30:4927.76798-82.35516347°18km/h9226m5.0m/s-26.1°C0%0hPa0V00:00:0000:00:0000:00:00
ARGUS22026-09-04 23:30:2927.76697-82.3556018°15km/h9124m3.6m/s-25.4°C0%0hPa0V00:00:0000:00:0000:00:00
ARGUS22026-09-04 23:30:0727.76606-82.35596335°15km/h9032m3.8m/s-24.8°C0%0hPa0V00:00:0000:00:0000:00:00
ARGUS22026-09-04 23:29:0327.76326-82.3566027°20km/h8735m5.1m/s-22.6°C0%0hPa0V00:00:0000:00:0000:00:00
ARGUS22026-09-04 23:28:3527.76225-82.3568020km/h8615m4.7m/s-21.7°C0%0hPa0V00:00:0000:00:0000:00:00
ARGUS22026-09-04 23:27:5227.76034-82.35660352°27km/h8385m4.1m/s-20.3°C0%0hPa0V00:00:0000:00:0000:00:00
ARGUS22026-09-04 23:27:3027.75931-82.35614341°22km/h8279m4.2m/s-19.5°C0%0hPa0V00:00:0000:00:0000:00:00
ARGUS22026-09-04 23:27:1027.75861-82.35594335°26km/h8190m3.6m/s-19.0°C0%0hPa0V00:00:0000:00:0000:00:00
ARGUS22026-09-04 23:26:5027.75779-82.35585343°31km/h8076m6.4m/s-18.6°C0%0hPa0V00:00:0000:00:0000:00:00
ARGUS22026-09-04 23:26:3027.75690-82.3556426km/h7966m5.3m/s-17.8°C0%0hPa0V00:00:0000:00:0000:00:00
ARGUS22026-09-04 23:26:0927.75601-82.3556714°22km/h7867m4.4m/s-17.0°C0%0hPa0V00:00:0000:00:0000:00:00
ARGUS22026-09-04 23:25:4827.75485-82.35596358°13km/h7772m3.8m/s-16.2°C0%0hPa0V00:00:0000:00:0000:00:00
ARGUS22026-09-04 23:25:2627.75366-82.3562425°16km/h7669m4.5m/s-15.4°C0%0hPa0V00:00:0000:00:0000:00:00
ARGUS22026-09-04 23:25:0527.75251-82.35648331°26km/h7565m4.0m/s-14.6°C0%0hPa0V00:00:0000:00:0000:00:00
ARGUS22026-09-04 23:24:4527.75134-82.3567829°22km/h7476m4.9m/s-14.2°C0%0hPa0V00:00:0000:00:0000:00:00
ARGUS22026-09-04 23:24:2527.75022-82.35734336°9km/h7395m6.6m/s-13.9°C0%0hPa0V00:00:0000:00:0000:00:00
ARGUS22026-09-04 23:24:0427.74967-82.3580236°16km/h7294m4.3m/s-13.4°C0%0hPa0V00:00:0000:00:0000:00:00
ARGUS22026-09-04 23:23:4327.74890-82.3584730°18km/h7206m4.7m/s-13.3°C0%0hPa0V00:00:0000:00:0000:00:00
ARGUS22026-09-04 23:23:2327.74783-82.3591635°29km/h7125m5.1m/s-13.1°C0%0hPa0V00:00:0000:00:0000:00:00
ARGUS22026-09-04 23:23:0327.74693-82.3602564°7km/h7036m3.4m/s-12.4°C0%0hPa0V00:00:0000:00:0000:00:00
ARGUS22026-09-04 23:22:4127.74579-82.36086327°13km/h6933m5.2m/s-11.6°C0%0hPa0V00:00:0000:00:0000:00:00
ARGUS22026-09-04 23:22:2027.74536-82.3613980°18km/h6818m3.6m/s-10.8°C0%0hPa0V00:00:0000:00:0000:00:00
ARGUS22026-09-04 23:21:5827.74467-82.3619764°11km/h6712m7.5m/s-10.0°C0%0hPa0V00:00:0000:00:0000:00:00
ARGUS22026-09-04 23:21:3627.74407-82.3623543°27km/h6597m7.0m/s-9.3°C0%0hPa0V00:00:0000:00:0000:00:00
ARGUS22026-09-04 23:21:1627.74359-82.36289350°15km/h6491m4.3m/s-8.8°C0%0hPa0V00:00:0000:00:0000:00:00
ARGUS22026-09-04 23:20:5627.74286-82.3634816°31km/h6381m8.4m/s-8.0°C0%0hPa0V00:00:0000:00:0000:00:00
ARGUS22026-09-04 23:20:3527.74204-82.3643937°13km/h6271m7.4m/s-7.3°C0%0hPa0V00:00:0000:00:0000:00:00
ARGUS22026-09-04 23:20:1527.74172-82.3650176°26km/h6151m3.7m/s-6.4°C0%0hPa0V00:00:0000:00:0000:00:00
ARGUS22026-09-04 23:19:5427.74132-82.3659035°26km/h6046m6.0m/s-6.1°C0%0hPa0V00:00:0000:00:0000:00:00
ARGUS22026-09-04 23:19:3427.74106-82.3666849°16km/h5918m5.4m/s-5.1°C0%0hPa0V00:00:0000:00:0000:00:00
ARGUS22026-09-04 23:19:1327.74041-82.3673215km/h5802m6.0m/s-4.2°C0%0hPa0V00:00:0000:00:0000:00:00
ARGUS22026-09-04 23:18:5327.73977-82.3679356°9km/h5699m4.8m/s-3.3°C0%0hPa0V00:00:0000:00:0000:00:00
ARGUS22026-09-04 23:18:3227.73907-82.3685888°26km/h5616m6.5m/s-3.1°C0%0hPa0V00:00:0000:00:0000:00:00
ARGUS22026-09-04 23:18:1227.73812-82.3695522°33km/h5520m3.7m/s-2.8°C0%0hPa0V00:00:0000:00:0000:00:00
ARGUS22026-09-04 23:17:5027.73734-82.3702439°18km/h5428m4.6m/s-2.3°C0%0hPa0V00:00:0000:00:0000:00:00
ARGUS22026-09-04 23:17:2927.73641-82.3710742°11km/h5328m4.1m/s-2.0°C0%0hPa0V00:00:0000:00:0000:00:00
ARGUS22026-09-04 23:17:0927.73595-82.3720326°29km/h5231m4.0m/s-1.5°C0%0hPa0V00:00:0000:00:0000:00:00
ARGUS22026-09-04 23:16:4827.73553-82.3728694°16km/h5137m4.1m/s0°C0%0hPa0V00:00:0000:00:0000:00:00
ARGUS22026-09-04 23:16:2727.73504-82.3732618km/h5039m5.8m/s-0.4°C0%0hPa0V00:00:0000:00:0000:00:00
ARGUS22026-09-04 23:16:0627.73416-82.3739588°13km/h4927m4.3m/s-0.4°C0%0hPa0V00:00:0000:00:0000:00:00
ARGUS22026-09-04 23:15:4527.73355-82.37482360°20km/h4816m4.8m/s0.1°C0%0hPa0V00:00:0000:00:0000:00:00
ARGUS22026-09-04 23:14:0327.73044-82.3778024°22km/h4281m5.8m/s3.6°C0%0hPa0V00:00:0000:00:0000:00:00
ARGUS22026-09-04 23:13:4227.72968-82.3787283°22km/h4177m3.8m/s4.2°C0%0hPa0V00:00:0000:00:0000:00:00
ARGUS22026-09-04 23:13:2127.72907-82.37944359°16km/h4061m4.4m/s4.8°C0%0hPa0V00:00:0000:00:0000:00:00
ARGUS22026-09-04 23:13:0027.72862-82.3802710°27km/h3942m5.6m/s5.3°C0%0hPa0V00:00:0000:00:0000:00:00
ARGUS22026-09-04 23:12:3927.72830-82.3809752°9km/h3823m5.1m/s5.9°C0%0hPa0V00:00:0000:00:0000:00:00
ARGUS22026-09-04 23:12:1827.72769-82.3819686°26km/h3693m6.8m/s6.8°C0%0hPa0V00:00:0000:00:0000:00:00


GPX KML Map

© wettersonde.net (DO2JMG) - 2026  -  -